Alexandria, LA

2:25 AM CST on January 19, 2018 (GMT -0600)
Alexandria International

Weather History for KAEX - January, 2008

Change the Weather History Date:

Tuesday, January 8, 2008

  Actual Average Record
Temperature  
Mean Temperature 64 °F 49 °F  
Max Temperature 75 °F 59 °F 79 °F (1907)
Min Temperature 53 °F 39 °F 17 °F (1942)
Degree Days  
Heating Degree Days 1 16  
Month to date heating degree days 110 128  
Since 1 July heating degree days 697 917  
Growing Degree Days 14 (Base 50)    
Moisture  
Dew Point 60 °F    
Average Humidity 79    
Maximum Humidity 88    
Minimum Humidity 66    
Precipitation  
Precipitation 0.62 in 0.15 in 2.90 in (1961)
Month to date precipitation 0.62 1.19  
Year to date precipitation 0.62 1.19  
Snow  
Snow 0.00 in - T in (1971)
Month to date snowfall 0.0  
Since 1 July snowfall 0.0  
Snow Depth 0.00 in    
Sea Level Pressure  
Sea Level Pressure 30.02 in    
Wind  
Wind Speed 10 mph (SSW)    
Max Wind Speed 18 mph    
Max Gust Speed 33 mph    
Visibility 8 miles    
Events Fog , Rain    
T = Trace of Precipitation, MM = Missing Value Source: NWS Daily Summary

Daily Weather History Graph

Daily Weather History Graph

Search for Another Location

Airport or City:

Trip Planner

Search our weather history database for the weather conditions in past years. The results will help you decide how hot, cold, wet, or windy it might be!

Date:

Astronomy

Jan. 08, 2008 Rise Set
Actual Time 7:10 AM CST 5:23 PM CST
Civil Twilight 6:43 AM CST 5:50 PM CST
Nautical Twilight 6:13 AM CST 6:20 PM CST
Astronomical Twilight 5:44 AM CST 6:49 PM CST
Moon 7:30 AM CST (1/8) 5:39 PM CST (1/8)
Length of Visible Light 11h 06m
Length of Day
10h 13m
New Moon, 0% of the Moon is Illuminated
Jan 8
New Moon
Jan 15
First Quarter
Jan 22
Full
Jan 29
Last Quarter
Feb 6
New

Hourly Weather History & Observations

Time (CST) Temp. Dew Point Humidity Pressure Visibility Wind Dir Wind Speed Gust Speed Precip Events Conditions
12:53 AM 71.1 °F 64.0 °F 78% 30.02 in 10.0 mi SSE 11.5 mph - N/A   Overcast
1:53 AM 72.0 °F 64.0 °F 76% 30.01 in 10.0 mi SSE 11.5 mph - N/A   Overcast
2:53 AM 71.1 °F 64.0 °F 78% 29.99 in 10.0 mi South 12.7 mph - N/A   Overcast
3:53 AM 71.1 °F 64.0 °F 78% 29.99 in 10.0 mi South 10.4 mph 20.7 mph N/A   Overcast
4:53 AM 71.1 °F 64.0 °F 78% 29.98 in 10.0 mi South 9.2 mph 17.3 mph N/A   Overcast
5:53 AM 71.1 °F 64.0 °F 78% 29.98 in 10.0 mi South 9.2 mph 18.4 mph N/A   Overcast
6:33 AM 71.6 °F 64.4 °F 78% 29.98 in 10.0 mi South 9.2 mph - N/A   Overcast
6:53 AM 71.1 °F 64.0 °F 78% 29.99 in 10.0 mi South 11.5 mph - N/A   Overcast
7:53 AM 71.1 °F 64.0 °F 78% 29.99 in 10.0 mi South 12.7 mph 21.9 mph N/A   Overcast
8:53 AM 73.0 °F 64.9 °F 76% 30.02 in 10.0 mi South 15.0 mph 19.6 mph N/A   Overcast
9:53 AM 73.9 °F 64.9 °F 73% 30.04 in 10.0 mi SSW 10.4 mph 23.0 mph N/A   Overcast
10:53 AM 73.9 °F 64.9 °F 73% 30.03 in 10.0 mi SSW 17.3 mph 24.2 mph 0.01 in   Overcast
11:53 AM 73.0 °F 66.0 °F 79% 30.01 in 10.0 mi SSW 9.2 mph - 0.00 in   Overcast
12:29 PM 73.4 °F 66.2 °F 78% 29.99 in 1.8 mi SSW 6.9 mph - 0.05 in Rain Heavy Rain
12:36 PM 71.6 °F 66.2 °F 83% 29.98 in 3.0 mi SW 6.9 mph - 0.09 in Rain Heavy Rain
12:50 PM 71.6 °F 66.2 °F 83% 29.97 in 0.5 mi South 6.9 mph - 0.24 in Fog , Rain Heavy Rain
12:53 PM 71.1 °F 66.9 °F 87% 29.97 in 0.5 mi South 10.4 mph - 0.24 in Fog , Rain Rain
12:56 PM 71.6 °F 66.2 °F 83% 29.96 in 2.5 mi South 8.1 mph - 0.00 in Rain Light Rain
12:59 PM 71.6 °F 66.2 °F 83% 29.96 in 7.0 mi South 6.9 mph - 0.00 in Rain Light Rain
1:06 PM 71.6 °F 66.2 °F 83% 29.96 in 10.0 mi South 8.1 mph - 0.00 in   Overcast
1:53 PM 73.0 °F 66.9 °F 81% 29.97 in 10.0 mi SSW 9.2 mph - 0.00 in   Overcast
2:53 PM 73.9 °F 66.9 °F 79% 29.96 in 10.0 mi SW 12.7 mph 18.4 mph 0.01 in   Overcast
3:53 PM 73.9 °F 66.9 °F 79% 29.96 in 10.0 mi South 11.5 mph - N/A   Mostly Cloudy
4:24 PM 60.8 °F 55.4 °F 82% 30.01 in 1.8 mi NNW 18.4 mph 33.4 mph 0.07 in Rain Rain
4:26 PM 60.8 °F 55.4 °F 82% 30.01 in 1.0 mi NNW 16.1 mph 33.4 mph 0.13 in Rain Heavy Rain
4:28 PM 59.0 °F 55.4 °F 88% 30.02 in 0.5 mi NW 17.3 mph 33.4 mph 0.21 in Fog , Rain Heavy Rain
4:39 PM 57.2 °F 53.6 °F 88% 30.02 in 1.0 mi NNW 13.8 mph - 0.36 in Rain Light Rain
4:53 PM 57.9 °F 53.1 °F 84% 30.05 in 10.0 mi NW 5.8 mph - 0.36 in Rain Light Rain
5:53 PM 59.0 °F 53.1 °F 81% 30.06 in 10.0 mi Calm Calm - 0.00 in   Overcast
6:53 PM 59.0 °F 54.0 °F 83% 30.07 in 10.0 mi Calm Calm - N/A   Overcast
7:53 PM 59.0 °F 52.0 °F 78% 30.10 in 10.0 mi NW 6.9 mph - N/A   Clear
8:53 PM 57.0 °F 48.9 °F 74% 30.12 in 10.0 mi NNW 8.1 mph - N/A   Mostly Cloudy
9:53 PM 54.0 °F 44.1 °F 69% 30.14 in 10.0 mi NNW 6.9 mph - N/A   Clear
10:53 PM 54.0 °F 43.0 °F 66% 30.16 in 10.0 mi North 6.9 mph - N/A   Mostly Cloudy
11:53 PM 53.1 °F 42.1 °F 66% 30.16 in 10.0 mi NNW 6.9 mph - N/A   Overcast